Location: Tauranga
(37.6860°S, 176.1670°E)
Time: 01:54:31
(UTC+13:00)

NOAA 11 - Pass Details

Date: 24 January 2019
Orbit: 832 x 850 km, 98.4° (Epoch: 13 October)

Event Time Altitude Azimuth Distance (km) Brightness Sun altitude
Rises 21:29:40 0° 164° (SSE) 3,448 7.6 -10.3°
Reaches altitude 10° 21:32:05 10° 161° (SSE) 2,506 6.9 -10.7°
Maximum altitude 21:37:38 64° 79° (ENE) 946 4.2 -11.6°
Drops below altitude 10° 21:43:05 10° 357° (N) 2,477 6.3 -12.5°
Sets 21:45:28 0° 354° (N) 3,404 7.0 -12.8°
